This demonstration page uses our WeatherBlox Daily Observations layout. Learn more.

Left ArrowRight Arrow

30.21309, -93.2044

Hourly Observations for December 7, 2022

Temp ( °F °C ) Dew Point ( °F °C ) Humidity (%) Winds ( mph kmh ) Pressure ( in mb ) Visibility ( mi km ) Precip ( " mm )
12:15 am 00:15 Cloudy with Fog 65 18.4 64 17.7 96 96 SSE 5 7 30.13 1020 0 0 0.00 0.00
12:35 am 00:35 Cloudy with Fog 64 17.9 63 17.2 96 96 Calm 30.13 1020 0 0 0.00 0.00
12:55 am 00:55 Cloudy with Fog 65 18.5 64 17.8 96 96 Calm 30.13 1020 0 0 0.00 0.00
1:15 am 01:15 Cloudy with Fog 66 18.7 65 18.1 96 96 Calm 30.14 1021 0 0 0.00 0.00
1:35 am 01:35 Cloudy with Fog 65 18.2 64 17.5 96 96 ESE 3 6 30.14 1021 1 1 0.00 0.00
1:55 am 01:55 Cloudy with Fog 64 18 63 17.4 96 96 E 3 6 30.14 1021 1 1 0.00 0.00
2:15 am 02:15 Cloudy with Fog 66 18.8 65 18.2 96 96 E 3 6 30.15 1021 1 1 0.00 0.00
2:35 am 02:35 Cloudy with Fog 66 19 65 18.4 96 96 E 3 6 30.16 1021 1 1 0.00 0.00
2:55 am 02:55 Cloudy with Fog 67 19.2 65 18.6 96 96 Calm 30.16 1021 1 1 0.00 0.00
3:15 am 03:15 Cloudy with Mist and Fog 65 18.5 64 17.8 96 96 Calm 30.16 1021 1 2 0.00 0.00
3:35 am 03:35 Cloudy with Fog 65 18.5 64 17.8 96 96 Calm 30.17 1022 1 1 0.00 0.00
3:55 am 03:55 Cloudy with Fog 65 18.4 64 17.7 96 96 Calm 30.17 1022 1 1 0.00 0.00
4:15 am 04:15 Cloudy with Mist and Fog 65 18.6 64 18 96 96 Calm 30.17 1022 1 1 0.00 0.00
4:35 am 04:35 Cloudy with Fog 65 18.2 64 17.6 96 96 E 5 7 30.17 1022 1 1 0.00 0.00
4:55 am 04:55 Cloudy with Fog 64 18 63 17.4 96 96 E 5 7 30.17 1022 1 1 0.00 0.00
5:15 am 05:15 Cloudy with Mist and Fog 66 19 65 18.4 96 96 ENE 3 6 30.18 1022 1 2 0.00 0.00
5:35 am 05:35 Cloudy with Fog 66 19.1 65 18.5 96 96 Calm 30.19 1022 1 1 0.00 0.00
6:00 am 06:00 Mostly Clear with Fog 66 19 66 19 100 100 E 5 7 30.19 1022 0 0 0.00 0.00
6:45 am 06:45 Mostly Clear with Fog 66 19 66 19 100 100 E 5 7 30.20 1023 0 0 0.00 0.00
7:50 am 07:50 Partly Cloudy with Fog 68 20 66 19 94 94 ESE 6 9 30.22 1023 0 0 0.00 0.00
8:32 am 08:32 Cloudy with Mist and Fog 70 21 68 20 94 94 ESE 6 9 30.23 1024 1 2 0.00 0.00
8:50 am 08:50 Cloudy with Mist and Fog 72 22 70 21 94 94 SE 6 9 30.24 1024 3 5 0.00 0.00
9:19 am 09:19 Mostly Cloudy with Mist and Fog 73 23 72 22 94 94 SSE 8 13 30.25 1024 5 8 0.00 0.00
9:50 am 09:50 Mostly Cloudy 73 23 72 22 94 94 SE 13 20 30.26 1025 7 11 0.00 0.00
10:47 am 10:47 Mostly Cloudy 75 24 72 22 89 89 SSE 12 19 30.26 1025 7 11 0.00 0.00
11:55 am 11:55 Mostly Cloudy 79 26 72 22 79 79 SSE 12 19 30.24 1024 7 11 0.00 0.00
12:49 pm 12:49 Partly Cloudy 81 27 68 20 66 66 S 12 19 30.22 1023 10 16 0.00 0.00
1:50 pm 13:50 Mostly Cloudy 79 26 70 21 74 74 SSW 12 19 30.20 1023 7 11 0.00 0.00
2:45 pm 14:45 Mostly Cloudy 79 26 70 21 74 74 SSE 12 19 30.19 1022 7 11 0.00 0.00
3:50 pm 15:50 Mostly Cloudy 77 25 70 21 79 79 S 9 15 30.20 1023 10 16 0.00 0.00
4:54 pm 16:54 Partly Cloudy 75 24 66 19 74 74 SSW 8 13 30.20 1023 10 16 0.00 0.00
5:54 pm 17:54 Clear 68 20 64 18 88 88 S 5 7 30.21 1023 10 16 0.00 0.00
6:52 pm 18:52 Clear 66 19 63 17 88 88 SSE 6 9 30.23 1024 10 16 0.00 0.00
7:52 pm 19:52 Partly Cloudy 64 18 63 17 94 94 SSE 6 9 30.24 1024 10 16 0.00 0.00
8:57 pm 20:57 Cloudy with Mist and Fog 66 19 64 18 94 94 SSE 6 9 30.24 1024 3 5 0.00 0.00
9:54 pm 21:54 Mostly Clear with Fog 70 21 68 20 94 94 SSE 7 11 30.25 1024 0 0 0.00 0.00
10:15 pm 22:15 Cloudy with Fog 69 20.8 68 20.1 96 96 S 6 9 30.25 1024 0 0 0.00 0.00
10:35 pm 22:35 Cloudy with Fog 70 21 69 20.3 96 96 S 7 11 30.25 1024 1 1 0.00 0.00
10:55 pm 22:55 Cloudy with Fog 70 20.9 68 20.2 96 96 SSE 7 11 30.25 1024 1 1 0.00 0.00
11:15 pm 23:15 Cloudy with Fog 70 20.9 68 20.2 96 96 S 6 9 30.25 1024 0 0 0.00 0.00
11:35 pm 23:35 Cloudy with Fog 70 20.9 68 20.2 96 96 S 5 7 30.25 1024 0 0 0.00 0.00
11:55 pm 23:55 Cloudy with Fog 69 20.6 68 19.9 96 96 S 6 9 30.24 1024 1 1 0.00 0.00

Powered by AerisWeather